GW4987 Weather Reports


time (UTC)temp
C
wind
direction
speed
KPH
gust
KPH
rain 1hr
cm
rain 24hr
cm
rain mn
cm
humidity
%
barometer
mb
20260506082009 5 255 8.0 8.0 0.00 0.00 0.00 59 1016.4
20260506081547 5 255 8.0 8.0 0.00 0.00 0.00 59 1016.7
20260506080510 5 241 4.8 6.4 0.00 0.00 0.00 56 1016.7
20260506073010 5 241 4.8 6.4 0.00 0.00 0.00 56 1016.8
20260506072546 5 241 4.8 6.4 0.00 0.00 0.00 56 1016.8
20260506072047 5 241 4.8 6.4 0.00 0.00 0.00 56 1016.7
20260506071510 5 241 4.8 6.4 0.00 0.00 0.00 56 1016.6
20260506071010 5 241 4.8 6.4 0.00 0.00 0.00 56 1016.6
20260506070514 6 257 4.8 4.8 0.00 0.00 0.00 56 1016.7
20260506061010 6 263 6.4 8.0 0.00 0.00 0.00 51 1016.3
20260506060547 6 263 6.4 8.0 0.00 0.00 0.00 51 1016.5
20260506051047 6 247 6.4 8.0 0.00 0.00 0.00 51 1016.3
20260506050547 7 249 6.4 6.4 0.00 0.00 0.00 51 1016.2
20260506045046 7 247 4.8 4.8 0.00 0.00 0.00 51 1016.1
20260506044510 7 247 4.8 4.8 0.00 0.00 0.00 51 1016.3
20260506044009 7 247 4.8 4.8 0.00 0.00 0.00 51 1016.0
20260506043546 7 256 4.8 4.8 0.00 0.00 0.00 51 1016.1
20260506043009 7 237 4.8 4.8 0.00 0.00 0.00 51 1016.1
20260506042546 7 230 4.8 8.0 0.00 0.00 0.00 51 1016.0
20260506042047 7 212 4.8 6.4 0.00 0.00 0.00 52 1016.0
20260506041547 7 231 4.8 4.8 0.00 0.00 0.00 52 1015.8
20260506035510 7 260 4.8 6.4 0.00 0.00 0.00 51 1016.0
20260506035010 7 252 4.8 6.4 0.00 0.00 0.00 50 1015.9
20260506034547 7 228 6.4 6.4 0.00 0.00 0.00 50 1015.7
20260506034047 7 210 4.8 4.8 0.00 0.00 0.00 50 1015.8
20260506033547 7 253 4.8 4.8 0.00 0.00 0.00 50 1015.7
20260506033047 7 220 3.2 3.2 0.00 0.00 0.00 50 1015.6
20260506031046 7 224 4.8 9.7 0.00 0.00 0.00 50 1015.3
20260506030510 8 199 4.8 6.4 0.00 0.00 0.00 49 1015.3
20260506030010 8 191 4.8 6.4 0.00 0.00 0.00 49 1015.2
20260506025546 8 174 4.8 4.8 0.00 0.00 0.00 49 1015.3
20260506025010 8 176 4.8 8.0 0.00 0.00 0.00 48 1015.0
20260506024547 8 216 8.0 11.3 0.00 0.00 0.00 48 1015.0
20260506024046 8 195 3.2 8.0 0.00 0.00 0.00 47 1014.7
20260506023547 9 224 14.5 16.1 0.00 0.00 0.00 44 1014.7
20260506023010 9 224 14.5 16.1 0.00 0.00 0.00 44 1014.6
20260506022547 9 224 14.5 16.1 0.00 0.00 0.00 44 1014.6
20260506022047 9 224 14.5 16.1 0.00 0.00 0.00 44 1014.6
20260506021509 9 224 14.5 16.1 0.00 0.00 0.00 44 1014.3
20260506021009 9 224 14.5 16.1 0.00 0.00 0.00 44 1014.3
20260506020546 11 226 11.3 17.7 0.00 0.00 0.00 41 1014.4
20260506020009 11 226 11.3 17.7 0.00 0.00 0.00 41 1014.3
20260506015546 11 226 11.3 17.7 0.00 0.00 0.00 41 1014.2
20260506015047 11 226 11.3 17.7 0.00 0.00 0.00 41 1014.1
20260506014546 11 226 11.3 17.7 0.00 0.00 0.00 41 1014.0
20260506014009 11 226 11.3 17.7 0.00 0.00 0.00 41 1014.1
20260506013546 11 226 11.3 17.7 0.00 0.00 0.00 41 1014.0
20260506010546 11 217 6.4 8.0 0.00 0.00 0.00 40 1013.9
20260506010046 11 217 6.4 8.0 0.00 0.00 0.00 40 1013.8
20260506005547 11 217 6.4 8.0 0.00 0.00 0.00 40 1013.9
20260506005046 11 217 6.4 8.0 0.00 0.00 0.00 40 1013.9
20260506004546 11 217 6.4 8.0 0.00 0.00 0.00 40 1013.9
20260506004047 11 217 6.4 8.0 0.00 0.00 0.00 40 1013.8
20260506003547 11 217 6.4 8.0 0.00 0.00 0.00 40 1013.9
20260506003010 11 217 6.4 8.0 0.00 0.00 0.00 40 1013.7
20260506002547 11 217 6.4 8.0 0.00 0.00 0.00 40 1013.8
20260506002046 11 217 6.4 8.0 0.00 0.00 0.00 40 1013.8
20260506001546 11 217 6.4 8.0 0.00 0.00 0.00 40 1013.5
20260506001047 11 217 6.4 8.0 0.00 0.00 0.00 40 1013.5
20260506000547 11 235 17.7 29.0 0.00 0.00 0.00 40 1013.6
20260506000010 11 202 22.5 32.2 0.00 0.00 0.00 40 1013.4
20260505235547 11 218 14.5 25.7 0.00 0.00 0.00 39 1013.5
20260505235047 11 206 17.7 30.6 0.00 0.00 0.00 40 1013.5
20260505234510 11 178 20.9 32.2 0.00 0.00 0.00 39 1013.4
20260505234010 11 205 27.4 33.8 0.00 0.00 0.00 39 1013.5
20260505233547 12 150 12.9 16.1 0.00 0.00 0.00 39 1013.1
20260505233010 11 217 19.3 37.0 0.00 0.00 0.00 40 1013.2
20260505232546 11 214 6.4 33.8 0.00 0.00 0.00 40 1013.0
20260505232046 12 213 8.0 29.0 0.00 0.00 0.00 39 1013.1
20260505231546 12 223 11.3 20.9 0.00 0.00 0.00 38 1013.1
20260505231010 12 208 17.7 45.1 0.00 0.00 0.00 37 1013.0
20260505230547 12 211 25.7 27.4 0.00 0.00 0.00 34 1013.0
20260505230047 12 211 25.7 27.4 0.00 0.00 0.00 34 1013.0
20260505224047 13 188 20.9 35.4 0.00 0.00 0.00 33 1013.1
20260505223547 13 188 20.9 35.4 0.00 0.00 0.00 33 1013.3
20260505223047 12 225 16.1 17.7 0.00 0.00 0.00 35 1013.1
20260505222547 12 195 22.5 41.8 0.00 0.00 0.00 34 1013.5
20260505222011 12 264 29.0 30.6 0.00 0.00 0.00 34 1013.4
20260505221547 13 196 24.1 41.8 0.00 0.00 0.00 32 1013.3
20260505221047 13 217 9.7 19.3 0.00 0.00 0.00 33 1013.4
20260505220511 13 200 25.7 32.2 0.00 0.00 0.00 33 1013.6
20260505214546 13 214 20.9 22.5 0.00 0.00 0.00 36 1013.6
20260505214046 13 214 20.9 22.5 0.00 0.00 0.00 36 1013.6
20260505213547 13 214 20.9 22.5 0.00 0.00 0.00 36 1013.3
20260505213011 13 214 20.9 22.5 0.00 0.00 0.00 36 1013.8
20260505212546 12 196 20.9 30.6 0.00 0.00 0.00 38 1013.8
20260505212046 12 196 20.9 30.6 0.00 0.00 0.00 38 1013.8
20260505211511 13 189 9.7 20.9 0.00 0.00 0.00 39 1013.9
20260505211010 13 223 14.5 16.1 0.00 0.00 0.00 41 1013.8
20260505210546 13 223 19.3 27.4 0.00 0.00 0.00 41 1013.8
20260505210046 11 170 12.9 17.7 0.00 0.00 0.00 48 1013.8
20260505205546 11 170 12.9 17.7 0.00 0.00 0.00 48 1013.9
20260505205046 11 171 12.9 29.0 0.00 0.00 0.00 49 1014.0
20260505204546 12 174 22.5 40.2 0.00 0.00 0.00 47 1013.8
20260505204010 13 221 22.5 29.0 0.00 0.00 0.00 45 1013.9
20260505203547 12 200 25.7 30.6 0.00 0.00 0.00 47 1013.8
20260505202010 11 128 8.0 22.5 0.00 0.00 0.00 46 1014.2
20260505201547 11 128 8.0 22.5 0.00 0.00 0.00 46 1014.2
20260505201011 11 128 8.0 22.5 0.00 0.00 0.00 46 1014.2
20260505195011 11 128 8.0 22.5 0.00 0.00 0.00 46 1014.4
20260505194546 11 128 8.0 22.5 0.00 0.00 0.00 46 1014.4
20260505194046 11 128 8.0 22.5 0.00 0.00 0.00 46 1014.3
20260505192046 11 173 20.9 30.6 0.00 0.00 0.00 46 1014.6
20260505191546 11 171 24.1 24.1 0.00 0.00 0.00 49 1014.4
20260505191047 11 221 14.5 25.7 0.00 0.00 0.00 50 1014.5
20260505185047 10 262 16.1 17.7 0.00 0.00 0.00 57 1014.5
20260505184511 10 262 16.1 17.7 0.00 0.00 0.00 57 1014.4
20260505184047 10 193 17.7 20.9 0.00 0.00 0.00 54 1014.4
20260505183546 10 193 17.7 20.9 0.00 0.00 0.00 54 1014.5
20260505183010 11 222 16.1 19.3 0.00 0.00 0.00 50 1014.6
20260505182546 11 222 16.1 25.7 0.00 0.00 0.00 50 1014.3
20260505182046 12 132 6.4 17.7 0.00 0.00 0.00 48 1014.3
20260505181547 12 179 8.0 17.7 0.00 0.00 0.00 48 1014.3
20260505175546 11 141 19.3 22.5 0.00 0.00 0.00 51 1014.3
20260505175010 11 213 9.7 33.8 0.00 0.00 0.00 50 1014.2
20260505174547 12 157 14.5 29.0 0.00 0.00 0.00 47 1014.2
20260505174011 11 153 17.7 33.8 0.00 0.00 0.00 50 1014.3
20260505173547 11 170 19.3 24.1 0.00 0.00 0.00 51 1014.3
20260505173047 10 203 22.5 29.0 0.00 0.00 0.00 55 1014.2
20260505171546 10 135 16.1 25.7 0.00 0.00 0.00 51 1014.2
20260505171046 10 121 14.5 24.1 0.00 0.00 0.00 52 1014.2
20260505170547 12 196 25.7 30.6 0.00 0.00 0.00 49 1014.2
20260505170011 12 137 8.0 20.9 0.00 0.00 0.00 50 1014.1
20260505165503 12 164 20.9 20.9 0.00 0.00 0.00 47 1014.1
20260505165046 11 164 8.0 12.9 0.00 0.00 0.00 52 1014.0
20260505164546 12 175 20.9 27.4 0.00 0.00 0.00 49 1014.1
20260505164047 11 129 20.9 27.4 0.00 0.00 0.00 51 1014.1
20260505163547 12 139 14.5 29.0 0.00 0.00 0.00 48 1014.2
20260505163010 11 163 11.3 14.5 0.00 0.00 0.00 54 1014.1
20260505162547 10 144 8.0 22.5 0.00 0.00 0.00 55 1014.1
20260505162046 10 134 8.0 29.0 0.00 0.00 0.00 56 1014.1
20260505161511 10 191 8.0 24.1 0.00 0.00 0.00 54 1014.4
20260505161010 11 281 6.4 14.5 0.00 0.00 0.00 55 1014.3
20260505160546 11 220 4.8 16.1 0.00 0.00 0.00 56 1014.4
20260505153046 10 128 17.7 32.2 0.00 0.00 0.00 60 1014.1
20260505152511 10 136 20.9 24.1 0.00 0.00 0.00 58 1014.1
20260505152011 10 135 11.3 20.9 0.00 0.00 0.00 57 1014.2
20260505151547 10 126 12.9 16.1 0.00 0.00 0.00 57 1014.1
20260505151010 10 107 6.4 9.7 0.00 0.00 0.00 57 1014.0
20260505150546 10 116 11.3 17.7 0.00 0.00 0.00 59 1014.2
20260505140546 7 255 4.8 17.7 0.00 0.00 0.00 64 1014.0
20260505125010 7 106 4.8 11.3 0.00 0.00 0.00 61 1013.8
20260505124547 7 125 8.0 11.3 0.00 0.00 0.00 61 1013.8
20260505124046 7 79 3.2 11.3 0.00 0.00 0.00 60 1013.6
20260505123527 7 128 9.7 12.9 0.00 0.00 0.00 60 1013.7
20260505123047 7 122 8.0 11.3 0.00 0.00 0.00 60 1013.7
20260505122546 7 98 4.8 14.5 0.00 0.00 0.00 60 1013.5
20260505122046 7 97 3.2 8.0 0.00 0.00 0.00 60 1013.7
20260505121547 7 168 6.4 11.3 0.00 0.00 0.00 60 1013.6
20260505121047 6 165 4.8 11.3 0.00 0.00 0.00 61 1013.7
20260505120510 6 186 3.2 8.0 0.00 0.00 0.00 63 1013.5
20260505120010 6 154 0.0 6.4 0.00 0.00 0.00 62 1013.3
20260505115547 6 164 4.8 11.3 0.00 0.00 0.00 61 1013.6
20260505115011 6 132 6.4 9.7 0.00 0.00 0.00 62 1013.7
20260505114546 6 113 4.8 14.5 0.00 0.00 0.00 62 1013.7
20260505114046 6 186 4.8 8.0 0.00 0.00 0.00 64 1013.8
20260505113547 6 99 4.8 9.7 0.00 0.00 0.00 64 1013.8
20260505113010 6 108 4.8 4.8 0.00 0.00 0.00 66 1013.8
20260505112546 6 160 3.2 6.4 0.00 0.00 0.00 65 1013.8
20260505112046 6 194 3.2 9.7 0.00 0.00 0.00 66 1013.9
20260505111510 6 192 3.2 4.8 0.00 0.00 0.00 65 1013.7
20260505111047 7 89 3.2 4.8 0.00 0.00 0.00 63 1013.7
20260505110546 7 105 8.0 14.5 0.00 0.00 0.00 62 1013.8
20260505102011 6 76 3.2 4.8 0.00 0.00 0.00 68 1014.1
20260505101546 6 43 4.8 8.0 0.00 0.00 0.00 68 1014.1
20260505101011 6 73 4.8 4.8 0.00 0.00 0.00 68 1014.1
20260505100546 6 37 3.2 4.8 0.00 0.00 0.00 68 1014.3
20260505100046 6 353 0.0 3.2 0.00 0.00 0.00 67 1014.2
20260505095547 6 69 4.8 6.4 0.00 0.00 0.00 67 1014.3
20260505095011 6 123 4.8 4.8 0.00 0.00 0.00 66 1014.3
20260505094546 6 31 6.4 8.0 0.00 0.00 0.00 67 1014.4
20260505094047 6 163 3.2 6.4 0.00 0.00 0.00 66 1014.3
20260505092046 6 66 3.2 3.2 0.00 0.00 0.00 66 1014.6
20260505091546 6 138 6.4 6.4 0.00 0.00 0.00 65 1014.7
20260505091047 6 267 3.2 4.8 0.00 0.00 0.00 64 1014.7
20260505090546 7 106 4.8 8.0 0.00 0.00 0.00 63 1014.7
20260505090011 7 105 4.8 11.3 0.00 0.00 0.00 61 1015.1
20260505085547 7 150 9.7 11.3 0.00 0.00 0.00 61 1015.1
20260505085046 7 134 8.0 11.3 0.00 0.00 0.00 61 1015.2
20260505084511 7 123 4.8 19.3 0.00 0.00 0.00 60 1015.2
20260505084010 7 139 14.5 16.1 0.00 0.00 0.00 61 1015.1
20260505083527 7 121 6.4 9.7 0.00 0.00 0.00 62 1015.3
20260505083047 7 208 9.7 14.5 0.00 0.00 0.00 62 1015.3
20260505082546 6 188 8.0 9.7 0.00 0.00 0.00 64 1015.2